DW9497 Weather Reports


time (UTC)temp
C
wind
direction
speed
KPH
gust
KPH
rain 1hr
cm
rain 24hr
cm
rain mn
cm
humidity
%
barometer
mb
20260503010034 10 6 0.0 3.2 0.00 0.00 0.00 94 1009.6
20260503004536 10 13 0.0 3.2 0.00 0.00 0.00 94 1009.8
20260503003036 11 14 1.6 3.2 0.00 0.00 0.00 93 1010.0
20260503001527 11 12 0.0 3.2 0.00 0.00 0.00 93 1010.2
20260503000024 11 46 0.0 0.0 0.00 0.00 0.00 93 1010.3
20260502234530 11 46 0.0 0.0 0.00 0.00 0.00 93 1010.4
20260502233022 11 46 0.0 0.0 0.00 0.00 0.00 93 1010.5
20260502231526 11 45 0.0 0.0 0.00 0.00 0.00 93 1010.6
20260502230019 11 46 0.0 0.0 0.00 0.00 0.00 93 1010.6
20260502224517 11 47 0.0 0.0 0.00 0.00 0.00 92 1010.7
20260502223017 11 80 0.0 0.0 0.00 0.00 0.00 92 1010.7
20260502221516 11 79 0.0 0.0 0.00 0.00 0.00 92 1010.8
20260502220020 11 79 0.0 0.0 0.00 0.00 0.00 91 1010.8
20260502214517 11 81 0.0 0.0 0.00 0.00 0.00 91 1010.7
20260502213032 11 110 0.0 0.0 0.00 0.00 0.00 91 1010.8
20260502211517 11 108 0.0 0.0 0.00 0.00 0.00 90 1011.0
20260502210011 11 108 0.0 0.0 0.00 0.00 0.00 89 1011.2
20260502204508 12 109 0.0 1.6 0.00 0.00 0.00 89 1011.3
20260502203006 11 108 0.0 0.0 0.00 0.00 0.00 86 1011.5
20260502201517 12 108 0.0 0.0 0.00 0.00 0.00 85 1011.6
20260502200005 12 108 0.0 0.0 0.00 0.00 0.00 83 1011.7
20260502194504 13 108 0.0 1.6 0.00 0.00 0.00 80 1011.8
20260502193004 13 109 0.0 0.0 0.00 0.00 0.00 76 1011.8
20260502191503 13 108 0.0 1.6 0.00 0.00 0.00 74 1011.7
20260502190003 14 107 0.0 1.6 0.00 0.00 0.00 72 1011.8
20260502184504 14 107 0.0 1.6 0.00 0.00 0.00 69 1011.6
20260502183001 15 107 0.0 0.0 0.00 0.00 0.00 67 1011.5
20260502181602 15 108 0.0 0.0 0.00 0.00 0.00 66 1011.5
20260502180105 15 108 0.0 1.6 0.00 0.00 0.00 65 1011.6
20260502163058 16 105 0.0 4.8 0.00 0.00 0.00 59 1012.1
20260502161553 16 118 0.0 1.6 0.00 0.00 0.00 61 1012.1
20260502151607 17 103 0.0 4.8 0.00 0.00 0.00 58 1012.8
20260502123025 17 105 0.0 6.4 0.00 0.00 0.00 60 1014.5
20260502121529 17 313 1.6 8.0 0.00 0.00 0.00 57 1014.8
20260502114519 17 139 0.0 6.4 0.00 0.00 0.00 60 1015.2
20260502113018 17 100 1.6 8.0 0.00 0.00 0.00 64 1015.4
20260502111516 17 119 1.6 4.8 0.00 0.00 0.00 61 1015.6
20260502110014 17 118 0.0 3.2 0.00 0.00 0.00 67 1015.5
20260502104521 15 124 0.0 4.8 0.00 0.00 0.00 66 1015.7
20260502103013 15 110 0.0 4.8 0.00 0.00 0.00 69 1015.7
20260502101506 14 123 0.0 3.2 0.00 0.00 0.00 69 1015.6
20260502071535 8 169 0.0 3.2 0.00 0.00 0.00 95 1016.9
20260502070053 7 169 0.0 0.0 0.00 0.00 0.00 95 1016.8
20260502064534 7 170 0.0 0.0 0.00 0.00 0.00 95 1016.6
20260502063035 7 169 0.0 0.0 0.00 0.00 0.00 94 1016.6
20260502061533 6 168 0.0 0.0 0.00 0.00 0.00 95 1016.6
20260502060039 6 226 0.0 0.0 0.00 0.00 0.00 95 1016.6
20260502054541 5 227 0.0 0.0 0.00 0.00 0.00 94 1016.5
20260502053031 5 229 0.0 0.0 0.00 0.00 0.00 94 1016.5
20260502051529 5 226 0.0 0.0 0.00 0.00 0.00 93 1016.5
20260502050028 5 226 0.0 0.0 0.00 0.00 0.00 93 1016.5
20260502044526 5 226 0.0 0.0 0.00 0.00 0.00 93 1016.5
20260502043023 6 227 0.0 0.0 0.00 0.00 0.00 93 1016.4
20260502041536 6 228 0.0 0.0 0.00 0.00 0.00 93 1016.4
20260502040042 6 226 0.0 0.0 0.00 0.00 0.00 93 1016.6
20260502034518 6 226 0.0 0.0 0.00 0.00 0.00 93 1016.7
20260502033026 6 229 0.0 1.6 0.00 0.00 0.00 93 1016.7
20260502031513 6 276 0.0 1.6 0.00 0.00 0.00 93 1016.8
20260502030013 6 279 0.0 1.6 0.00 0.00 0.00 93 1016.8
20260502024512 7 279 0.0 0.0 0.00 0.00 0.00 93 1016.8
20260502023026 7 280 0.0 0.0 0.00 0.00 0.00 92 1016.8
20260502021508 7 279 0.0 0.0 0.00 0.00 0.00 93 1016.9
20260502020006 7 278 0.0 0.0 0.00 0.00 0.00 92 1017.0
20260502014503 7 280 0.0 0.0 0.00 0.00 0.00 92 1017.3
20260502013103 7 280 0.0 0.0 0.00 0.00 0.00 92 1017.5
20260502013001 7 278 0.0 0.0 0.00 0.00 0.00 92 1017.5
20260502011607 7 281 0.0 0.0 0.00 0.00 0.00 92 1017.6